x

Edisto - 41 Nm Southeast Of Charleston, Sc (41004) Wave Buoy

11:50pm - Thu 26th Mar 2015 All times are EDT. -4 hours from GMT.

  • Sig Wave height 5.2ft
  • Swell Direction
  • Peak Period 8s
  • Average Period 6s
  • Wind
    16mph, 18mph gusts
  • Sea Temp 71°f
  • Air Temp 71°f
  • Sea Pressure 1008.7mb
  • Edisto - 41 Nm Southeast Of Charleston, Sc
  • Edisto - 41 Nm Southeast Of Charleston, Sc

More Historic Weather Station data

Upgrade to MSW Pro to gain access to the past 30 days of data for over 8000 Wavebouys and Weather Stations around the globe.

Join Pro

Comparision Forecast

View Surf forecast
   
Thu 03/26 11:50pm 5ft 8s 6s 16 18 mph 1008.7mb 71f 71f
10:50pm 5ft 8s 6s 16 18 mph 1009.4mb 70f 71f
9:50pm 5ft 8s 6s 13 16 mph 1010.1mb 70f 70f
8:50pm 5.5ft 8s 6s 16 18 mph 1010.3mb 70f 70f
7:50pm 6ft 7s 6s 16 18 mph 1010.3mb 71f 71f
6:50pm 5ft 8s 6s 13 16 mph 1011mb 71f 70f
5:50pm 4.5ft 8s 6s 13 16 mph 1011.3mb 71f 69f
4:50pm 5ft 8s 6s 11
mph
1012mb 71f 68f
3:50pm 5ft 8s 6s 13 16 mph 1012.7mb 71f 67f
2:50pm 4.5ft 8s 6s 13 18 mph 1013.6mb 71f 68f
1:50pm 5.5ft 8s 7s 13
mph
1014.1mb 71f 68f
12:50pm 5.5ft 8s 7s 11 13 mph 1014.8mb 71f 68f
11:50am 6ft 8s 6s 11 16 mph 1015.8mb 71f 67f
10:50am 6ft 8s 6s 13 16 mph 1016.3mb 70f 67f
9:50am 6ft 8s 6s 16 20 mph 1016.4mb 70f 67f
8:50am 8ft 8s 7s 16 20 mph 1016.2mb 70f 67f
7:50am 7ft 8s 7s 16 18 mph 1015.7mb 70f 67f
6:50am 8ft 8s 7s 11 18 mph 1015.2mb 70f 67f
5:50am 7ft 8s 6s 13 16 mph 1014.6mb 70f 67f
4:50am 8ft 8s 6s 7 9 mph 1014.9mb 70f 71f
3:50am 7.5ft 8s 6s 11 13 mph 1015.8mb 70f 71f
2:50am 7ft 8s 6s 18 29 mph 1016.4mb 70f 70f
1:50am 8ft 8s 6s 16 27 mph 1017.4mb 70f 72f
12:50am 7.5ft 8s 6s 16 18 mph 1017.9mb 70f 72f
Wed 03/25 11:50pm 7ft 7s 6s 18 22 mph 1018.2mb 71f 73f
10:50pm 7ft 8s 6s 16 18 mph 1018.7mb 71f 73f
9:50pm 6ft 8s 6s 16 18 mph 1019.1mb 70f 72f
8:50pm 7ft 8s 6s 11 13 mph 1019.4mb 70f 71f
7:50pm 7ft 8s 6s 9 11 mph 1019.7mb 70f 71f
6:50pm 7ft 8s 6s 16 20 mph 1019.3mb 70f 72f
5:50pm 7ft 8s 6s 13 16 mph 1019.3mb 70f 72f
4:50pm 7ft 8s 6s 13 16 mph 1019.6mb 70f 72f
3:50pm 7ft 7s 6s 16 20 mph 1019.7mb 70f 72f
2:50pm 7ft 7s 6s 13 18 mph 1020.2mb 70f 72f
1:50pm 6ft 6s 5s 13 16 mph 1020.7mb 70f 71f
12:50pm 6.5ft 8s 6s 16 20 mph 1021mb 70f 71f
11:50am 6.5ft 8s 6s 18 20 mph 1021.1mb 70f 71f
10:50am 6ft 8s 5s 18 22 mph 1021.2mb 70f 70f
9:50am 6ft 8s 5s 22 27 mph 1020.8mb 70f 70f
8:50am 6.5ft 7s 5s 18 22 mph 1020.9mb 70f 69f
7:50am 7ft 8s 5s 25 29 mph 1020.1mb 70f 68f
6:50am 6.5ft 6s 5s 22 27 mph 1019.6mb 69f 71f
5:50am 6.5ft 6s 5s 20 25 mph 1019.3mb 69f 70f
4:50am 6ft 7s 5s 22 27 mph 1019mb 69f 70f
3:50am 6ft 7s 6s 22 27 mph 1018.9mb 70f 71f
2:50am 6ft 6s 5s 22 27 mph 1019.6mb 70f 71f
1:50am 6ft 8s 5s 20 27 mph 1019.7mb 70f 71f
12:50am 6ft 8s 5s 22 25 mph 1019.7mb 70f 71f
Tue 03/24 11:50pm 5.5ft 9s 5s 20 25 mph 1019.8mb 69f 71f
10:50pm 6ft 8s 5s 16 20 mph 1020.2mb 69f 68f
9:50pm 6ft 8s 5s 20 25 mph 1020.2mb 69f 67f
8:50pm 6ft 9s 5s 25 29 mph 1020mb 69f 65f
7:50pm 6.5ft 7s 5s 22 27 mph 1019.7mb 69f 66f
6:50pm 6ft 6s 5s 22 25 mph 1019.8mb 69f 65f
5:50pm 6.5ft 6s 5s 22 27 mph 1019.5mb 68f 64f
4:50pm 6.5ft 6s 5s 22 25 mph 1019.5mb 68f 64f
3:50pm 7ft 6s 5s 22 27 mph 1019.5mb 68f 63f
2:50pm 6.5ft 7s 5s 25 29 mph 1019.2mb 68f 64f
1:50pm 6.5ft 9s 5s 22 27 mph 1019.5mb 68f 64f
12:50pm 7ft 8s 5s 25 27 mph 1019.7mb 68f 64f
11:50am 7ft 9s 6s 22 29 mph 1020.2mb 69f 64f
10:50am 7ft 9s 6s 25 29 mph 1019.8mb 69f 63f
9:50am 7ft 5s 5s 27 31 mph 1019.4mb 69f 62f
8:50am 7ft 9s 6s 25 29 mph 1018.8mb 69f 64f
7:50am 7.5ft 9s 6s 25 29 mph 1018.2mb 69f 63f
6:50am 7ft 9s 5s 25 29 mph 1017.4mb 69f 63f
5:50am 7ft 8s 5s 25 29 mph 1017.3mb 69f 64f
4:50am 8ft 9s 6s 22 27 mph 1016.9mb 69f 63f
3:50am 8ft 7s 6s 22 27 mph 1016.8mb 69f 64f
2:50am 8ft 7s 6s 25 29 mph 1016.7mb 69f 63f
1:50am 8.5ft 7s 6s 25 29 mph 1017mb 69f 63f
12:50am 9ft 8s 6s 27 31 mph 1017.4mb 69f 63f
Mon 03/23 11:50pm 9ft 8s 6s 29 34 mph 1016.6mb 69f 63f
10:50pm 9ft 8s 6s 27 34 mph 1016.4mb 69f 62f
9:50pm 10ft 8s 6s 27 34 mph 1016.3mb 69f 61f
8:50pm 9.5ft 8s 6s 27 34 mph 1016.1mb 69f 60f
7:50pm 9.5ft 8s 6s 29 34 mph 1015.9mb 69f 60f
6:50pm 10ft 9s 6s 31 36 mph 1015mb 69f 60f
5:50pm 10ft 8s 6s 31 36 mph 1014.5mb 68f 60f
4:50pm 10ft 9s 6s 34 40 mph 1013.6mb 68f 60f
3:50pm 10ft 8s 6s 34 38 mph 1013.5mb 69f 60f
2:50pm 9.5ft 9s 6s 29 36 mph 1014mb 69f 61f
1:50pm 9.5ft 8s 6s 31 38 mph 1013.8mb 69f 61f
12:50pm 9ft 8s 6s 29 38 mph 1013.7mb 69f 61f
11:50am 9ft 8s 6s 29 36 mph 1013.6mb 70f 61f
10:50am 9.5ft 8s 6s 29 36 mph 1012.9mb 70f 63f
9:50am 9ft 8s 6s 29 36 mph 1012.5mb 70f 63f
8:50am 9ft 8s 6s 27 31 mph 1012.4mb 70f 64f
7:50am 10ft 7s 6s 29 34 mph 1011.2mb 70f 64f
6:50am 9.5ft 7s 6s 31 38 mph 1010.6mb 70f 62f
5:50am 10ft 7s 6s 31 38 mph 1010.7mb 70f 60f